GW0489 Weather Reports


Display with metric or nautical units.
time (UTC)temp
F
wind
direction
speed
MPH
gust
MPH
rain 1hr
in
rain 24hr
in
rain mn
in
humidity
%
barometer
mb
20260906003103 85 294 0.0 5.0 0.00 0.00 0.00 80 1011.6
20260906001611 85 168 0.0 4.0 0.00 0.00 0.00 80 1011.5
20260905234557 86 0 0.0 4.0 0.00 0.00 0.00 79 1011.7
20260905233110 87 144 0.0 5.0 0.00 0.00 0.00 78 1011.4
20260905231557 88 36 0.0 6.0 0.00 0.00 0.00 77 1011.5
20260905230055 89 9 0.0 6.0 0.00 0.00 0.00 75 1011.6
20260905224607 89 0 0.0 4.0 0.00 0.00 0.00 76 1011.8
20260905223058 89 0 2.0 7.0 0.00 0.00 0.00 75 1011.6
20260905221554 89 101 1.0 5.0 0.00 0.00 0.00 75 1011.7
20260905220104 89 113 2.0 5.0 0.00 0.00 0.00 74 1011.8
20260905214556 89 77 1.0 5.0 0.00 0.00 0.00 75 1011.8
20260905213100 89 54 1.0 4.0 0.00 0.00 0.00 74 1012.0
20260905211559 89 0 1.0 6.0 0.00 0.00 0.00 74 1012.1
20260905210110 89 313 2.0 5.0 0.00 0.00 0.00 74 1012.0
20260905204600 89 336 2.0 7.0 0.00 0.00 0.00 74 1012.0
20260905203102 89 5 1.0 4.0 0.00 0.00 0.00 74 1012.1
20260905201608 89 309 3.0 4.0 0.00 0.00 0.00 75 1012.0
20260905200135 89 274 2.0 8.0 0.00 0.00 0.00 75 1012.2
20260905194608 88 118 1.0 6.0 0.00 0.00 0.00 75 1012.4
20260905193053 89 41 2.0 7.0 0.00 0.00 0.00 75 1012.9
20260905191600 89 175 2.0 9.0 0.00 0.00 0.00 75 1013.0
20260905190058 89 350 1.0 6.0 0.00 0.00 0.00 74 1013.1
20260905184603 89 190 3.0 9.0 0.00 0.00 0.00 74 1013.2
20260905183100 88 28 1.0 6.0 0.00 0.00 0.00 73 1013.5
20260905181558 88 247 1.0 7.0 0.00 0.00 0.00 75 1013.7
20260905180101 88 281 3.0 7.0 0.00 0.00 0.00 77 1013.7
20260905174600 88 9 3.0 9.0 0.00 0.01 0.00 77 1013.9
20260905173057 87 328 1.0 8.0 0.00 0.01 0.00 76 1013.9
20260905171605 87 275 2.0 6.0 0.00 0.01 0.00 78 1014.0
20260905170101 86 246 1.0 4.0 0.00 0.01 0.00 79 1014.1
20260905164558 85 276 3.0 6.0 0.00 0.02 0.00 80 1014.3
20260905163104 85 261 7.0 10.0 0.00 0.02 0.00 79 1014.2
20260905161554 87 275 2.0 5.0 0.00 0.02 0.00 78 1014.4
20260905160059 87 162 1.0 9.0 0.00 0.02 0.00 78 1014.3
20260905154558 87 276 2.0 6.0 0.00 0.02 0.00 78 1014.2
20260905153100 87 204 1.0 6.0 0.00 0.02 0.00 79 1014.2
20260905151557 85 0 0.0 4.0 0.00 0.02 0.00 81 1014.1
20260905150059 85 273 2.0 4.0 0.00 0.02 0.00 82 1014.1
20260905144558 84 0 0.0 4.0 0.00 0.02 0.00 84 1014.3
20260905143108 83 336 1.0 3.0 0.00 0.02 0.00 85 1014.3
20260905141551 83 28 2.0 5.0 0.00 0.02 0.00 87 1014.3
20260905134611 82 0 0.0 3.0 0.00 0.02 0.00 89 1014.0
20260905133056 82 11 1.0 3.0 0.00 0.02 0.00 91 1014.1
20260905131611 82 0 0.0 3.0 0.00 0.02 0.00 92 1014.0
20260905130058 81 28 3.0 5.0 0.00 0.02 0.00 92 1014.0
20260905124604 81 11 3.0 5.0 0.00 0.02 0.00 93 1013.9
20260905123100 81 26 2.0 4.0 0.00 0.02 0.00 93 1013.8
20260905121556 81 34 2.0 3.0 0.00 0.02 0.00 93 1013.8
20260905120051 81 36 1.0 3.0 0.00 0.02 0.00 93 1013.5
20260905114611 81 48 2.0 4.0 0.00 0.02 0.00 93 1013.4
20260905113059 81 48 3.0 5.0 0.00 0.02 0.00 93 1013.5
20260905111606 81 38 3.0 7.0 0.00 0.02 0.00 92 1013.3
20260905104558 82 349 3.0 5.0 0.00 0.02 0.00 91 1013.2
20260905103100 82 244 0.0 2.0 0.00 0.02 0.00 90 1013.1
20260905101559 81 0 0.0 1.0 0.00 0.02 0.00 89 1013.0
20260905100105 81 281 1.0 3.0 0.00 0.02 0.00 89 1012.8
20260905094608 82 0 0.0 2.0 0.00 0.02 0.00 89 1013.0
20260905093101 82 0 0.0 2.0 0.00 0.02 0.00 89 1013.0
20260905091608 82 286 2.0 3.0 0.00 0.02 0.00 89 1012.9
20260905090058 82 0 0.0 1.0 0.00 0.02 0.00 88 1012.9
20260905084559 82 0 0.0 0.0 0.00 0.02 0.00 87 1013.0
20260905083051 82 0 0.0 4.0 0.00 0.02 0.00 87 1012.8
20260905081601 82 150 0.0 4.0 0.00 0.02 0.00 87 1012.7
20260905074600 82 165 0.0 2.0 0.00 0.02 0.00 87 1012.8
20260905073052 82 126 0.0 3.0 0.00 0.02 0.00 87 1012.9
20260905071604 82 0 0.0 1.0 0.00 0.02 0.00 87 1012.8
20260905070059 82 0 0.0 2.0 0.00 0.02 0.00 87 1012.7
20260905064559 82 0 1.0 4.0 0.00 0.02 0.00 86 1012.5
20260905063118 82 95 0.0 4.0 0.00 0.02 0.00 86 1012.5
20260905061612 82 129 1.0 3.0 0.00 0.02 0.00 86 1012.7
20260905060059 82 0 0.0 3.0 0.00 0.02 0.00 87 1012.8
20260905054555 82 0 0.0 3.0 0.00 0.02 0.00 86 1012.8
20260905053056 82 134 1.0 3.0 0.00 0.02 0.00 86 1013.0
20260905051550 82 0 0.0 0.0 0.00 0.02 0.00 86 1013.2
20260905044558 82 77 0.0 2.0 0.00 0.08 0.02 86 1013.4
20260905043126 82 0 0.0 1.0 0.00 0.08 0.02 87 1013.6
20260905041558 82 0 0.0 2.0 0.00 0.08 0.02 87 1013.6
20260905040119 82 101 1.0 3.0 0.00 0.08 0.02 87 1013.7
20260905034600 82 102 1.0 3.0 0.00 0.09 0.02 87 1013.9
20260905033056 82 0 2.0 4.0 0.00 0.09 0.02 87 1013.9
20260905031558 82 0 0.0 0.0 0.00 0.09 0.02 87 1014.0
20260905030057 82 0 0.0 0.0 0.00 0.09 0.02 87 1014.0
20260905024550 82 0 0.0 0.0 0.00 0.09 0.02 87 1014.2
20260905023104 82 0 0.0 2.0 0.00 0.09 0.02 87 1014.1
20260905021603 82 0 0.0 3.0 0.00 0.09 0.02 86 1014.1
20260905020057 82 0 0.0 3.0 0.00 0.09 0.02 86 1014.0
20260905014554 82 0 0.0 2.0 0.00 0.09 0.02 86 1013.8
20260905013103 82 0 0.0 1.0 0.00 0.09 0.02 86 1013.6
20260905011558 82 111 0.0 4.0 0.00 0.09 0.02 85 1013.5
20260905004616 83 92 1.0 4.0 0.00 0.09 0.02 86 1013.4